Check out our new BloomSky Weather System.

Active alerts

Fort Bend, TX
  Details for Fort Bend, TX River Flood Warning  +1 additional alert
Houston, TX
  Details for Houston, TX Wind Advisory
Galveston, TX
  Details for Galveston, TX Wind Advisory


Thunder radar  blitzortung!


Rain radar more information rain snow radar


Visit our other weather sites:

Template documentation
and downloads

And another site



Weather Underground History page Text

Daily Summary for June 28, 2017 Units:  English    Metric   Both
« Previous Day
Next Day »
Daily Weekly Monthly Yearly Custom
  High: Low: Average:
Temperature: TemperatureF °F 73.2 °F 80.8 °F
Dew Point: DewpointF °F 72.3 °F 74.4 °F
Humidity: Humidity % 62 % 82 %
Wind Speed: WindSpeedMPH mph 0.0 mph 2.5 mph
Wind Gust: WindSpeedGustMPH mph - -
Wind:- - ESE
Pressure: PressureIn in 29.82 in -
Precipitation: 0.00 in    
Historical Graphs
 
 
Tabular Data for June 28, 2017
Time Temperature Dew Point Pressure Wind Wind Speed Wind Gust Humidity Rainfall Rate (Hourly)
TemperatureF °F DewpointF °F PressureIn in Calm     Humidity % HourlyPrecipIn in
00:03 76.8 °F 73.4 °F 29.93 in Calm   1.0 mph 89 % 0.00 in
00:08 76.6 °F 73.4 °F 29.94 in Calm   1.0 mph 90 % 0.00 in
00:13 76.6 °F 73.4 °F 29.94 in Calm   1.0 mph 90 % 0.00 in
00:18 76.5 °F 73.2 °F 29.94 in Calm   1.0 mph 90 % 0.00 in
00:23 76.5 °F 73.6 °F 29.94 in NNE 1.0 mph 1.0 mph 91 % 0.00 in
00:28 76.5 °F 73.6 °F 29.94 in Calm   1.0 mph 91 % 0.00 in
00:33 76.5 °F 73.6 °F 29.94 in Calm   3.0 mph 91 % 0.00 in
00:38 76.3 °F 73.4 °F 29.94 in Calm   3.0 mph 91 % 0.00 in
00:43 76.3 °F 73.8 °F 29.94 in North 1.0 mph 3.0 mph 92 % 0.00 in
00:48 76.3 °F 73.8 °F 29.94 in ENE 1.0 mph 2.0 mph 92 % 0.00 in
00:53 76.3 °F 73.8 °F 29.94 in Calm   3.0 mph 92 % 0.00 in
00:54 76.3 °F 73.8 °F 29.94 in Calm   3.0 mph 92 % 0.00 in
00:59 76.5 °F 73.9 °F 29.94 in NE 1.0 mph 3.0 mph 92 % 0.00 in
01:04 76.5 °F 74.3 °F 29.94 in Calm   3.0 mph 93 % 0.00 in
01:09 76.3 °F 74.1 °F 29.94 in Calm   3.0 mph 93 % 0.00 in
01:14 76.3 °F 74.1 °F 29.94 in NNW 1.0 mph 3.0 mph 93 % 0.00 in
01:19 76.3 °F 74.1 °F 29.94 in Calm   3.0 mph 93 % 0.00 in
01:24 76.3 °F 74.1 °F 29.94 in Calm   4.0 mph 93 % 0.00 in
01:29 76.3 °F 74.1 °F 29.94 in Calm   5.0 mph 93 % 0.00 in
01:34 76.3 °F 74.1 °F 29.94 in East 2.0 mph 5.0 mph 93 % 0.00 in
01:39 76.1 °F 73.9 °F 29.94 in NW 3.0 mph 5.0 mph 93 % 0.00 in
01:44 76.1 °F 73.9 °F 29.94 in Calm   6.0 mph 93 % 0.00 in
01:49 75.9 °F 73.8 °F 29.94 in East 1.0 mph 6.0 mph 93 % 0.00 in
01:54 75.9 °F 73.8 °F 29.93 in ENE 2.0 mph 6.0 mph 93 % 0.00 in
01:59 75.9 °F 73.8 °F 29.93 in NNE 2.0 mph 5.0 mph 93 % 0.00 in
02:04 75.7 °F 73.6 °F 29.93 in NNW 1.0 mph 5.0 mph 93 % 0.00 in
02:09 75.7 °F 73.6 °F 29.93 in ESE 1.0 mph 5.0 mph 93 % 0.00 in
02:14 75.7 °F 73.6 °F 29.93 in Calm   3.0 mph 93 % 0.00 in
02:20 75.6 °F 73.4 °F 29.93 in ESE 1.0 mph 3.0 mph 93 % 0.00 in
02:25 75.6 °F 73.4 °F 29.93 in East 2.0 mph 3.0 mph 93 % 0.00 in
02:30 75.4 °F 73.6 °F 29.93 in East 1.0 mph 3.0 mph 94 % 0.00 in
02:35 75.4 °F 73.6 °F 29.92 in Calm   3.0 mph 94 % 0.00 in
02:40 75.4 °F 73.6 °F 29.92 in Calm   4.0 mph 94 % 0.00 in
02:45 75.2 °F 73.4 °F 29.92 in Calm   4.0 mph 94 % 0.00 in
02:50 75.0 °F 73.2 °F 29.92 in Calm   4.0 mph 94 % 0.00 in
02:55 75.0 °F 73.2 °F 29.92 in Calm   2.0 mph 94 % 0.00 in
03:00 75.0 °F 73.2 °F 29.92 in Calm   2.0 mph 94 % 0.00 in
03:05 75.0 °F 73.2 °F 29.91 in Calm   3.0 mph 94 % 0.00 in
03:10 75.0 °F 73.2 °F 29.91 in Calm   5.0 mph 94 % 0.00 in
03:15 74.8 °F 73.2 °F 29.91 in ENE 1.0 mph 5.0 mph 95 % 0.00 in
03:20 74.8 °F 73.2 °F 29.91 in Calm   5.0 mph 95 % 0.00 in
03:25 74.8 °F 73.2 °F 29.91 in ENE 1.0 mph 3.0 mph 95 % 0.00 in
03:30 74.7 °F 73.2 °F 29.91 in North 1.0 mph 3.0 mph 95 % 0.00 in
03:35 74.7 °F 73.2 °F 29.91 in Calm   4.0 mph 95 % 0.00 in
03:40 74.7 °F 73.2 °F 29.91 in Calm   4.0 mph 95 % 0.00 in
03:45 74.5 °F 73.0 °F 29.91 in Calm   4.0 mph 95 % 0.00 in
03:50 74.5 °F 73.0 °F 29.91 in NNE 2.0 mph 4.0 mph 95 % 0.00 in
03:55 74.5 °F 73.0 °F 29.91 in Calm   2.0 mph 95 % 0.00 in
04:00 74.3 °F 72.9 °F 29.91 in Calm   2.0 mph 95 % 0.00 in
04:05 74.3 °F 72.9 °F 29.91 in Calm   2.0 mph 95 % 0.00 in
04:10 74.1 °F 72.7 °F 29.91 in Calm   1.0 mph 95 % 0.00 in
04:15 74.1 °F 72.9 °F 29.91 in Calm   1.0 mph 96 % 0.00 in
04:20 74.1 °F 72.9 °F 29.90 in Calm   2.0 mph 96 % 0.00 in
04:22 73.9 °F 72.7 °F 29.91 in Calm   2.0 mph 96 % 0.00 in
04:27 73.9 °F 72.7 °F 29.91 in Calm   2.0 mph 96 % 0.00 in
04:32 73.9 °F 72.7 °F 29.91 in Calm   2.0 mph 96 % 0.00 in
04:37 73.9 °F 72.7 °F 29.91 in Calm   3.0 mph 96 % 0.00 in
04:42 73.9 °F 72.7 °F 29.91 in Calm   3.0 mph 96 % 0.00 in
04:47 74.1 °F 72.9 °F 29.91 in Calm   3.0 mph 96 % 0.00 in
04:52 74.1 °F 72.9 °F 29.90 in North 1.0 mph 3.0 mph 96 % 0.00 in
04:57 74.1 °F 72.9 °F 29.90 in Calm   3.0 mph 96 % 0.00 in
05:02 73.9 °F 72.7 °F 29.90 in Calm   3.0 mph 96 % 0.00 in
05:07 73.9 °F 72.7 °F 29.90 in Calm   4.0 mph 96 % 0.00 in
05:12 73.9 °F 72.7 °F 29.90 in Calm   4.0 mph 96 % 0.00 in
05:17 73.9 °F 72.7 °F 29.90 in Calm   4.0 mph 96 % 0.00 in
05:18 73.9 °F 72.7 °F 29.90 in Calm   4.0 mph 96 % 0.00 in
05:23 73.8 °F 72.5 °F 29.90 in Calm   4.0 mph 96 % 0.00 in
05:28 73.8 °F 72.5 °F 29.90 in North 1.0 mph 4.0 mph 96 % 0.00 in
05:33 73.8 °F 72.5 °F 29.90 in Calm   5.0 mph 96 % 0.00 in
05:38 73.8 °F 72.5 °F 29.90 in Calm   5.0 mph 96 % 0.00 in
05:43 73.6 °F 72.3 °F 29.90 in Calm   5.0 mph 96 % 0.00 in
05:48 73.6 °F 72.3 °F 29.90 in Calm   5.0 mph 96 % 0.00 in
05:53 73.6 °F 72.3 °F 29.90 in Calm   5.0 mph 96 % 0.00 in
05:58 73.4 °F 72.5 °F 29.90 in Calm   3.0 mph 97 % 0.00 in
06:03 73.2 °F 72.3 °F 29.90 in Calm   3.0 mph 97 % 0.00 in
06:08 73.2 °F 72.3 °F 29.90 in Calm   3.0 mph 97 % 0.00 in
06:13 73.2 °F 72.3 °F 29.90 in Calm   3.0 mph 97 % 0.00 in
06:18 73.2 °F 72.3 °F 29.90 in WNW 1.0 mph 3.0 mph 97 % 0.00 in
06:23 73.2 °F 72.3 °F 29.90 in NNW 2.0 mph 3.0 mph 97 % 0.00 in
06:28 73.2 °F 72.3 °F 29.90 in Calm   3.0 mph 97 % 0.00 in
06:33 73.2 °F 72.3 °F 29.90 in NW 2.0 mph 3.0 mph 97 % 0.00 in
06:38 73.2 °F 72.3 °F 29.90 in NW 1.0 mph 3.0 mph 97 % 0.00 in
06:43 73.4 °F 72.5 °F 29.90 in NNW 1.0 mph 3.0 mph 97 % 0.00 in
06:48 73.6 °F 72.7 °F 29.90 in Calm   5.0 mph 97 % 0.00 in
06:53 73.6 °F 72.7 °F 29.90 in Calm   5.0 mph 97 % 0.00 in
06:58 73.6 °F 72.7 °F 29.90 in NNE 1.0 mph 5.0 mph 97 % 0.00 in
07:03 73.8 °F 72.9 °F 29.90 in ENE 2.0 mph 6.0 mph 97 % 0.00 in
07:09 73.8 °F 72.9 °F 29.91 in NNW 1.0 mph 6.0 mph 97 % 0.00 in
07:13 73.8 °F 72.9 °F 29.90 in NNE 4.0 mph 6.0 mph 97 % 0.00 in
07:18 73.8 °F 72.9 °F 29.91 in ENE 2.0 mph 6.0 mph 97 % 0.00 in
07:23 73.9 °F 73.0 °F 29.91 in East 2.0 mph 6.0 mph 97 % 0.00 in
07:29 73.9 °F 73.0 °F 29.91 in East 6.0 mph 6.0 mph 97 % 0.00 in
07:34 73.9 °F 73.0 °F 29.91 in NNW 1.0 mph 6.0 mph 97 % 0.00 in
07:39 73.9 °F 73.0 °F 29.91 in East 1.0 mph 6.0 mph 97 % 0.00 in
07:44 74.1 °F 73.2 °F 29.91 in NNW 1.0 mph 8.0 mph 97 % 0.00 in
07:47 74.1 °F 73.6 °F 29.91 in NNE 3.0 mph 8.0 mph 98 % 0.00 in
07:49 74.3 °F 73.4 °F 29.91 in NE 3.0 mph 8.0 mph 97 % 0.00 in
07:54 74.5 °F 73.6 °F 29.91 in ENE 4.0 mph 8.0 mph 97 % 0.00 in
07:59 74.7 °F 73.8 °F 29.91 in NNW 2.0 mph 7.0 mph 97 % 0.00 in
08:04 74.7 °F 73.8 °F 29.91 in East 1.0 mph 7.0 mph 97 % 0.00 in
08:09 74.8 °F 73.9 °F 29.91 in East 3.0 mph 7.0 mph 97 % 0.00 in
08:14 75.0 °F 74.1 °F 29.91 in NE 2.0 mph 7.0 mph 97 % 0.00 in
08:19 75.4 °F 74.5 °F 29.91 in North 2.0 mph 7.0 mph 97 % 0.00 in
08:24 75.7 °F 74.8 °F 29.91 in East 6.0 mph 7.0 mph 97 % 0.00 in
08:30 75.9 °F 74.7 °F 29.91 in ESE 2.0 mph 7.0 mph 96 % 0.00 in
08:35 76.3 °F 75.0 °F 29.91 in NE 1.0 mph 7.0 mph 96 % 0.00 in
08:40 76.6 °F 75.0 °F 29.91 in SE 2.0 mph 7.0 mph 95 % 0.00 in
08:45 77.2 °F 75.4 °F 29.91 in Calm   7.0 mph 94 % 0.00 in
08:50 77.7 °F 75.6 °F 29.90 in ESE 5.0 mph 7.0 mph 93 % 0.00 in
08:55 78.6 °F 76.1 °F 29.90 in NW 2.0 mph 7.0 mph 92 % 0.00 in
09:00 79.0 °F 75.7 °F 29.90 in NW 5.0 mph 6.0 mph 90 % 0.00 in
09:05 79.5 °F 75.9 °F 29.91 in ENE 3.0 mph 6.0 mph 89 % 0.00 in
09:10 79.7 °F 75.6 °F 29.90 in NW 2.0 mph 7.0 mph 87 % 0.00 in
09:15 80.2 °F 75.7 °F 29.91 in NE 7.0 mph 7.0 mph 86 % 0.00 in
09:20 80.4 °F 75.9 °F 29.90 in NNW 4.0 mph 7.0 mph 86 % 0.00 in
09:25 81.1 °F 76.3 °F 29.91 in NE 5.0 mph 7.0 mph 85 % 0.00 in
09:30 81.1 °F 75.6 °F 29.91 in NNW 1.0 mph 7.0 mph 83 % 0.00 in
09:31 81.1 °F 75.9 °F 29.90 in North 1.0 mph 7.0 mph 84 % 0.00 in
09:36 81.5 °F 76.5 °F 29.91 in Calm   6.0 mph 85 % 0.00 in
09:41 82.0 °F 75.9 °F 29.91 in ENE 3.0 mph 6.0 mph 82 % 0.00 in
09:46 82.2 °F 76.1 °F 29.91 in ESE 4.0 mph 6.0 mph 82 % 0.00 in
09:51 82.2 °F 76.1 °F 29.91 in ENE 1.0 mph 6.0 mph 82 % 0.00 in
09:56 82.4 °F 75.9 °F 29.91 in East 4.0 mph 6.0 mph 81 % 0.00 in
10:01 82.4 °F 75.9 °F 29.91 in East 2.0 mph 7.0 mph 81 % 0.00 in
10:02 82.2 °F 75.7 °F 29.91 in ESE 4.0 mph 7.0 mph 81 % 0.00 in
10:07 82.2 °F 75.7 °F 29.91 in SE 4.0 mph 8.0 mph 81 % 0.00 in
10:12 82.2 °F 75.4 °F 29.91 in ESE 4.0 mph 10.0 mph 80 % 0.00 in
10:17 82.6 °F 76.1 °F 29.91 in ENE 4.0 mph 10.0 mph 81 % 0.00 in
10:22 82.9 °F 76.8 °F 29.91 in ESE 1.0 mph 10.0 mph 82 % 0.00 in
10:23 83.1 °F 77.0 °F 29.91 in East 3.0 mph 10.0 mph 82 % 0.00 in
10:28 83.7 °F 76.1 °F 29.91 in ESE 3.0 mph 9.0 mph 78 % 0.00 in
10:33 84.0 °F 76.5 °F 29.91 in South 4.0 mph 9.0 mph 78 % 0.00 in
10:38 84.0 °F 76.5 °F 29.91 in East 3.0 mph 9.0 mph 78 % 0.00 in
10:43 84.0 °F 75.6 °F 29.91 in SE 6.0 mph 9.0 mph 76 % 0.00 in
10:48 83.8 °F 75.4 °F 29.91 in NE 2.0 mph 9.0 mph 76 % 0.00 in
10:53 83.7 °F 75.7 °F 29.91 in ENE 2.0 mph 9.0 mph 77 % 0.00 in
10:58 83.7 °F 76.1 °F 29.91 in ESE 5.0 mph 9.0 mph 78 % 0.00 in
11:03 83.5 °F 75.9 °F 29.91 in ENE 9.0 mph 10.0 mph 78 % 0.00 in
11:08 83.1 °F 76.3 °F 29.91 in East 10.0 mph 10.0 mph 80 % 0.00 in
11:13 83.7 °F 76.5 °F 29.91 in NNW 4.0 mph 10.0 mph 79 % 0.00 in
11:18 84.2 °F 76.3 °F 29.91 in NW 3.0 mph 10.0 mph 77 % 0.00 in
11:23 84.9 °F 76.5 °F 29.91 in North 2.0 mph 10.0 mph 76 % 0.00 in
11:28 85.3 °F 76.5 °F 29.91 in SSE 5.0 mph 8.0 mph 75 % 0.00 in
11:33 85.1 °F 75.9 °F 29.92 in SE 3.0 mph 9.0 mph 74 % 0.00 in
11:38 84.9 °F 76.1 °F 29.91 in SE 1.0 mph 10.0 mph 75 % 0.00 in
11:43 85.8 °F 76.6 °F 29.91 in ESE 4.0 mph 12.0 mph 74 % 0.00 in
11:48 86.4 °F 76.6 °F 29.91 in SSE 4.0 mph 12.0 mph 73 % 0.00 in
11:53 86.4 °F 76.6 °F 29.91 in NE 3.0 mph 12.0 mph 73 % 0.00 in
11:58 86.2 °F 77.4 °F 29.91 in Calm   9.0 mph 75 % 0.00 in
12:03 86.4 °F 76.6 °F 29.91 in East 4.0 mph 9.0 mph 73 % 0.00 in
12:08 86.4 °F 76.6 °F 29.91 in East 2.0 mph 11.0 mph 73 % 0.00 in
12:14 86.2 °F 76.5 °F 29.91 in ESE 2.0 mph 11.0 mph 73 % 0.00 in
12:19 86.2 °F 77.0 °F 29.91 in ENE 3.0 mph 11.0 mph 74 % 0.00 in
12:24 86.9 °F 77.2 °F 29.91 in NE 6.0 mph 10.0 mph 73 % 0.00 in
12:29 86.7 °F 76.6 °F 29.91 in East 2.0 mph 9.0 mph 72 % 0.00 in
12:34 86.5 °F 75.6 °F 29.90 in East 3.0 mph 8.0 mph 70 % 0.00 in
12:39 87.1 °F 77.0 °F 29.90 in ENE 4.0 mph 13.0 mph 72 % 0.00 in
12:43 87.3 °F 75.4 °F 29.90 in ENE 3.0 mph 13.0 mph 68 % 0.00 in
12:48 86.7 °F 75.4 °F 29.90 in ENE 6.0 mph 13.0 mph 69 % 0.00 in
12:53 87.1 °F 77.0 °F 29.90 in NNW 2.0 mph 9.0 mph 72 % 0.00 in
12:58 87.1 °F 75.2 °F 29.90 in ESE 6.0 mph 9.0 mph 68 % 0.00 in
13:03 87.4 °F 76.5 °F 29.89 in ENE 3.0 mph 9.0 mph 70 % 0.00 in
13:08 88.0 °F 76.1 °F 29.89 in ENE 5.0 mph 9.0 mph 68 % 0.00 in
13:13 87.6 °F 74.8 °F 29.89 in NNE 4.0 mph 9.0 mph 66 % 0.00 in
13:18 87.4 °F 75.6 °F 29.89 in ENE 5.0 mph 9.0 mph 68 % 0.00 in
13:24 88.2 °F 76.3 °F 29.88 in East 6.0 mph 9.0 mph 68 % 0.00 in
13:29 88.2 °F 76.3 °F 29.88 in ENE 3.0 mph 11.0 mph 68 % 0.00 in
13:34 88.3 °F 75.9 °F 29.88 in NNW 2.0 mph 11.0 mph 67 % 0.00 in
13:39 88.2 °F 76.6 °F 29.88 in WSW 2.0 mph 11.0 mph 69 % 0.00 in
13:44 88.2 °F 75.4 °F 29.88 in SSE 4.0 mph 10.0 mph 66 % 0.00 in
13:49 88.5 °F 76.1 °F 29.87 in SE 5.0 mph 10.0 mph 67 % 0.00 in
13:54 88.5 °F 76.1 °F 29.87 in SE 5.0 mph 10.0 mph 67 % 0.00 in
13:59 89.1 °F 75.7 °F 29.87 in East 6.0 mph 12.0 mph 65 % 0.00 in
14:04 88.9 °F 76.1 °F 29.87 in SE 6.0 mph 12.0 mph 66 % 0.00 in
14:09 88.5 °F 75.7 °F 29.87 in East 5.0 mph 12.0 mph 66 % 0.00 in
14:14 88.5 °F 76.1 °F 29.87 in NE 7.0 mph 12.0 mph 67 % 0.00 in
14:19 88.9 °F 77.0 °F 29.87 in SE 4.0 mph 11.0 mph 68 % 0.00 in
14:24 89.2 °F 75.9 °F 29.87 in ESE 4.0 mph 10.0 mph 65 % 0.00 in
14:29 89.1 °F 76.3 °F 29.86 in East 5.0 mph 14.0 mph 66 % 0.00 in
14:34 89.6 °F 76.6 °F 29.86 in ENE 2.0 mph 14.0 mph 66 % 0.00 in
14:39 89.6 °F 76.6 °F 29.86 in East 7.0 mph 14.0 mph 66 % 0.00 in
14:44 89.2 °F 76.8 °F 29.86 in NNW 3.0 mph 11.0 mph 67 % 0.00 in
14:49 89.6 °F 77.2 °F 29.86 in ESE 6.0 mph 11.0 mph 67 % 0.00 in
14:54 89.8 °F 76.8 °F 29.86 in South 3.0 mph 11.0 mph 66 % 0.00 in
14:59 89.8 °F 76.5 °F 29.86 in ENE 5.0 mph 9.0 mph 65 % 0.00 in
15:04 89.6 °F 76.6 °F 29.86 in NE 4.0 mph 10.0 mph 66 % 0.00 in
15:09 89.8 °F 76.8 °F 29.86 in NE 3.0 mph 10.0 mph 66 % 0.00 in
15:14 89.4 °F 75.6 °F 29.86 in East 5.0 mph 10.0 mph 64 % 0.00 in
15:19 89.2 °F 76.5 °F 29.85 in ENE 4.0 mph 9.0 mph 66 % 0.00 in
15:24 89.2 °F 76.5 °F 29.86 in NE 5.0 mph 9.0 mph 66 % 0.00 in
15:29 90.0 °F 76.6 °F 29.86 in SE 2.0 mph 10.0 mph 65 % 0.00 in
15:34 90.1 °F 76.8 °F 29.85 in North 4.0 mph 10.0 mph 65 % 0.00 in
15:39 89.8 °F 76.5 °F 29.85 in ESE 2.0 mph 10.0 mph 65 % 0.00 in
15:49 89.4 °F 76.1 °F 29.84 in SSE 4.0 mph 10.0 mph 65 % 0.00 in
15:54 90.0 °F 76.1 °F 29.84 in ESE 2.0 mph 10.0 mph 64 % 0.00 in
15:59 90.0 °F 75.2 °F 29.84 in NE 3.0 mph 10.0 mph 62 % 0.00 in
16:04 89.4 °F 76.1 °F 29.84 in ESE 4.0 mph 11.0 mph 65 % 0.00 in
16:09 89.2 °F 75.4 °F 29.84 in SE 3.0 mph 11.0 mph 64 % 0.00 in
16:14 89.1 °F 75.2 °F 29.84 in SE 5.0 mph 11.0 mph 64 % 0.00 in
16:19 89.2 °F 75.9 °F 29.84 in East 4.0 mph 12.0 mph 65 % 0.00 in
16:25 89.4 °F 75.2 °F 29.84 in ENE 4.0 mph 12.0 mph 63 % 0.00 in
16:30 89.6 °F 75.4 °F 29.83 in East 3.0 mph 15.0 mph 63 % 0.00 in
16:35 89.8 °F 76.5 °F 29.83 in SE 5.0 mph 15.0 mph 65 % 0.00 in
16:40 89.4 °F 75.2 °F 29.83 in ESE 4.0 mph 15.0 mph 63 % 0.00 in
16:45 89.2 °F 75.4 °F 29.83 in East 3.0 mph 12.0 mph 64 % 0.00 in
16:50 89.4 °F 74.7 °F 29.83 in WNW 1.0 mph 12.0 mph 62 % 0.00 in
16:55 89.1 °F 74.3 °F 29.83 in SE 1.0 mph 14.0 mph 62 % 0.00 in
17:00 89.1 °F 75.2 °F 29.84 in Calm   14.0 mph 64 % 0.00 in
17:05 89.2 °F 74.5 °F 29.84 in North 4.0 mph 14.0 mph 62 % 0.00 in
17:10 89.4 °F 75.2 °F 29.84 in North 3.0 mph 12.0 mph 63 % 0.00 in
17:15 89.4 °F 75.2 °F 29.83 in North 5.0 mph 10.0 mph 63 % 0.00 in
17:20 89.6 °F 75.4 °F 29.83 in ESE 3.0 mph 9.0 mph 63 % 0.00 in
17:25 89.8 °F 76.5 °F 29.83 in SSE 5.0 mph 9.0 mph 65 % 0.00 in
17:30 89.8 °F 75.6 °F 29.83 in NE 8.0 mph 11.0 mph 63 % 0.00 in
17:35 88.9 °F 74.7 °F 29.83 in East 2.0 mph 11.0 mph 63 % 0.00 in
17:40 88.2 °F 73.9 °F 29.83 in ENE 4.0 mph 11.0 mph 63 % 0.00 in
17:45 87.8 °F 74.5 °F 29.83 in NNE 2.0 mph 8.0 mph 65 % 0.00 in
17:50 88.3 °F 75.0 °F 29.83 in East 3.0 mph 8.0 mph 65 % 0.00 in
17:55 88.3 °F 75.0 °F 29.82 in ENE 4.0 mph 12.0 mph 65 % 0.00 in
18:00 88.5 °F 74.8 °F 29.83 in South 8.0 mph 12.0 mph 64 % 0.00 in
18:05 88.9 °F 75.6 °F 29.82 in NE 6.0 mph 10.0 mph 65 % 0.00 in
18:10 88.9 °F 75.6 °F 29.82 in SE 4.0 mph 10.0 mph 65 % 0.00 in
18:15 88.7 °F 75.4 °F 29.82 in ESE 1.0 mph 12.0 mph 65 % 0.00 in
18:20 88.7 °F 75.9 °F 29.82 in SSE 4.0 mph 12.0 mph 66 % 0.00 in
18:25 88.2 °F 75.7 °F 29.82 in ESE 4.0 mph 12.0 mph 67 % 0.00 in
18:30 87.4 °F 75.9 °F 29.82 in South 7.0 mph 15.0 mph 69 % 0.00 in
18:35 86.9 °F 76.3 °F 29.82 in SSE 3.0 mph 15.0 mph 71 % 0.00 in
18:40 86.5 °F 76.5 °F 29.82 in East 9.0 mph 15.0 mph 72 % 0.00 in
18:45 86.5 °F 76.5 °F 29.82 in ENE 7.0 mph 12.0 mph 72 % 0.00 in
18:50 86.4 °F 75.4 °F 29.82 in SSE 5.0 mph 12.0 mph 70 % 0.00 in
18:55 86.4 °F 75.9 °F 29.82 in SE 2.0 mph 12.0 mph 71 % 0.00 in
19:00 86.5 °F 75.9 °F 29.82 in East 2.0 mph 12.0 mph 71 % 0.00 in
19:05 86.5 °F 75.9 °F 29.82 in East 6.0 mph 10.0 mph 71 % 0.00 in
19:10 86.4 °F 75.4 °F 29.82 in ESE 8.0 mph 9.0 mph 70 % 0.00 in
19:15 86.0 °F 75.6 °F 29.82 in SE 2.0 mph 12.0 mph 71 % 0.00 in
19:20 86.2 °F 75.7 °F 29.82 in North 2.0 mph 12.0 mph 71 % 0.00 in
19:25 86.4 °F 76.3 °F 29.82 in ENE 3.0 mph 12.0 mph 72 % 0.00 in
19:30 86.2 °F 76.1 °F 29.83 in East 9.0 mph 16.0 mph 72 % 0.00 in
19:35 85.3 °F 75.6 °F 29.82 in SSE 6.0 mph 16.0 mph 73 % 0.00 in
19:40 84.6 °F 75.7 °F 29.83 in South 4.0 mph 16.0 mph 75 % 0.00 in
19:45 84.0 °F 75.6 °F 29.83 in East 3.0 mph 14.0 mph 76 % 0.00 in
19:50 83.7 °F 75.2 °F 29.83 in East 2.0 mph 12.0 mph 76 % 0.00 in
19:55 83.5 °F 75.6 °F 29.83 in ESE 2.0 mph 10.0 mph 77 % 0.00 in
20:00 83.3 °F 75.7 °F 29.83 in ESE 8.0 mph 14.0 mph 78 % 0.00 in
20:05 82.9 °F 75.0 °F 29.83 in SE 6.0 mph 14.0 mph 77 % 0.00 in
20:10 82.8 °F 74.8 °F 29.83 in East 5.0 mph 14.0 mph 77 % 0.00 in
20:15 82.8 °F 75.2 °F 29.83 in SE 3.0 mph 11.0 mph 78 % 0.00 in
20:20 82.6 °F 75.4 °F 29.83 in SE 4.0 mph 11.0 mph 79 % 0.00 in
20:25 82.4 °F 75.2 °F 29.83 in ESE 2.0 mph 11.0 mph 79 % 0.00 in
20:30 82.2 °F 75.4 °F 29.83 in ENE 3.0 mph 11.0 mph 80 % 0.00 in
20:35 82.0 °F 75.6 °F 29.83 in East 3.0 mph 8.0 mph 81 % 0.00 in
20:40 81.9 °F 75.7 °F 29.83 in SE 2.0 mph 8.0 mph 82 % 0.00 in
20:45 81.5 °F 75.4 °F 29.83 in Calm   9.0 mph 82 % 0.00 in
20:50 81.3 °F 75.4 °F 29.83 in ESE 2.0 mph 12.0 mph 82 % 0.00 in
20:56 81.1 °F 75.2 °F 29.83 in ESE 2.0 mph 12.0 mph 82 % 0.00 in
21:01 81.0 °F 75.0 °F 29.83 in SE 4.0 mph 12.0 mph 82 % 0.00 in
21:06 81.0 °F 75.4 °F 29.83 in Calm   10.0 mph 83 % 0.00 in
21:11 80.8 °F 75.2 °F 29.83 in East 2.0 mph 10.0 mph 83 % 0.00 in
21:16 80.8 °F 75.6 °F 29.84 in ENE 1.0 mph 10.0 mph 84 % 0.00 in
21:21 80.6 °F 75.4 °F 29.83 in Calm   10.0 mph 84 % 0.00 in
21:26 80.4 °F 75.2 °F 29.83 in SE 6.0 mph 7.0 mph 84 % 0.00 in
21:31 80.2 °F 75.0 °F 29.83 in SSE 1.0 mph 7.0 mph 84 % 0.00 in
21:36 80.2 °F 75.0 °F 29.84 in ESE 3.0 mph 7.0 mph 84 % 0.00 in
21:41 80.1 °F 74.8 °F 29.84 in SSE 1.0 mph 7.0 mph 84 % 0.00 in
21:46 80.1 °F 74.8 °F 29.84 in ESE 2.0 mph 7.0 mph 84 % 0.00 in
21:51 79.9 °F 74.3 °F 29.84 in East 3.0 mph 10.0 mph 83 % 0.00 in
21:56 79.9 °F 74.3 °F 29.84 in SSE 1.0 mph 10.0 mph 83 % 0.00 in
22:01 79.9 °F 73.9 °F 29.85 in NE 5.0 mph 12.0 mph 82 % 0.00 in
22:06 79.9 °F 73.9 °F 29.85 in East 2.0 mph 12.0 mph 82 % 0.00 in
22:11 79.7 °F 73.8 °F 29.85 in East 4.0 mph 12.0 mph 82 % 0.00 in
22:16 79.5 °F 73.6 °F 29.85 in ESE 2.0 mph 8.0 mph 82 % 0.00 in
22:21 79.5 °F 73.6 °F 29.85 in ESE 5.0 mph 6.0 mph 82 % 0.00 in
22:26 79.5 °F 73.6 °F 29.85 in Calm   6.0 mph 82 % 0.00 in
22:31 79.3 °F 73.4 °F 29.86 in SE 1.0 mph 7.0 mph 82 % 0.00 in
22:36 79.3 °F 73.4 °F 29.85 in ESE 4.0 mph 9.0 mph 82 % 0.00 in
22:41 79.2 °F 73.6 °F 29.86 in ESE 2.0 mph 9.0 mph 83 % 0.00 in
22:46 79.2 °F 73.6 °F 29.86 in ESE 4.0 mph 9.0 mph 83 % 0.00 in
22:51 79.2 °F 73.6 °F 29.86 in Calm   9.0 mph 83 % 0.00 in
22:56 79.0 °F 73.8 °F 29.86 in SE 4.0 mph 5.0 mph 84 % 0.00 in
23:01 79.0 °F 73.8 °F 29.86 in East 3.0 mph 5.0 mph 84 % 0.00 in
23:06 78.8 °F 73.6 °F 29.86 in ESE 1.0 mph 5.0 mph 84 % 0.00 in
23:11 78.6 °F 73.8 °F 29.86 in ENE 1.0 mph 5.0 mph 85 % 0.00 in
23:16 78.6 °F 73.8 °F 29.86 in Calm   5.0 mph 85 % 0.00 in
23:21 78.6 °F 74.1 °F 29.86 in SSE 1.0 mph 7.0 mph 86 % 0.00 in
23:26 78.6 °F 74.1 °F 29.86 in SE 3.0 mph 7.0 mph 86 % 0.00 in
23:31 78.4 °F 73.9 °F 29.86 in SSE 2.0 mph 7.0 mph 86 % 0.00 in
23:36 78.4 °F 73.9 °F 29.86 in ESE 2.0 mph 7.0 mph 86 % 0.00 in
23:41 78.4 °F 74.3 °F 29.86 in ESE 2.0 mph 7.0 mph 87 % 0.00 in
23:46 78.3 °F 74.1 °F 29.86 in Calm   5.0 mph 87 % 0.00 in
23:51 78.3 °F 74.1 °F 29.86 in ESE 1.0 mph 5.0 mph 87 % 0.00 in
23:56 78.1 °F 73.9 °F 29.87 in SE 2.0 mph 5.0 mph 87 % 0.00 in
23:58 78.1 °F 73.9 °F 29.87 in Calm   5.0 mph 87 % 0.00 in
Spring, Texas: Villages of Bridgestone
Compliments of Weather Underground - 3 mb

Script developed by  Jim McMurry - jmcmurry@mwt.net Adapted for the template by  Wim van der Kuil - Leuven-Template.eu

You find our weather info also at:

UK Metoffice

WeatherCloud

Weather Underground

Mid-South Weather Network

AWEKAS

Citizen Weather Observer Program (CWOP)

HAMweather, WeatherForYou, PWS Weather

Equipment we use:

Weather-station
Davis Vantage Vue

Weather-program
Meteohub

Weather-server
Debian 7.9 x86 (Guest)

Provider
DreamHost

Davis Vantage Vue

Meteohub

Debian 7.9 x86 (Guest)

DreamHost